Location: Palo Alto
(37.4420°N, 122.1420°W)
Time: 16:30:21
(UTC-07:00)

ARGOS - Visible Passes

Search period start: 23 April 2017 00:00
Search period end: 03 May 2017 00:00
Orbit: 820 x 835 km, 98.6° (Epoch: 22 April)

Date Brightness Start Highest point End Pass type
(mag) Time Alt. Az. Time Alt. Az. Time Alt. Az.
23 Apr 3.5 21:53:21 43° E 21:54:00 45° ENE 21:59:06 10° N visible
23 Apr 5.1 23:34:52 20° W 23:34:52 20° W 23:38:21 10° NW visible
24 Apr 4.0 21:34:29 28° E 21:35:34 31° ENE 21:40:13 10° N visible
24 Apr 4.5 23:16:00 30° W 23:16:00 30° W 23:20:26 10° NW visible
25 Apr 4.5 21:15:36 19° E 21:17:12 21° ENE 21:21:09 10° NNE visible
25 Apr 3.9 22:57:07 46° W 22:57:07 46° W 23:02:14 10° NNW visible
26 Apr 4.9 20:56:44 12° E 20:58:52 15° ENE 21:01:43 10° NNE visible
26 Apr 3.2 22:38:15 68° WSW 22:38:28 69° WSW 22:43:51 10° NNW visible
27 Apr 3.0 22:19:22 70° SE 22:19:56 80° ENE 22:25:19 10° N visible
28 Apr 5.7 00:00:53 11° W 00:00:53 11° W 00:02:03 10° WNW visible
28 Apr 3.3 22:00:30 47° ESE 22:01:26 53° ENE 22:06:39 10° N visible
28 Apr 5.3 23:42:01 17° W 23:42:01 17° W 23:45:25 10° NW visible
29 Apr 3.9 21:41:38 31° E 21:42:59 36° ENE 21:47:51 10° N visible
29 Apr 4.7 23:23:08 26° W 23:23:14 26° W 23:27:41 10° NW visible
30 Apr 4.4 21:22:46 21° E 21:24:35 25° ENE 21:28:53 10° NNE visible
30 Apr 4.1 23:04:16 38° WSW 23:04:34 39° W 23:09:35 10° NNW visible
01 May 4.8 21:03:53 13° E 21:06:14 17° ENE 21:09:38 10° NNE visible
01 May 3.4 22:45:24 55° SW 22:45:57 58° W 22:51:16 10° NNW visible
02 May 5.1 20:46:13 10° E 20:47:57 12° ENE 20:49:41 10° NE visible
02 May 3.0 22:26:32 65° S 22:27:23 87° WSW 22:32:47 10° NNW visible
